Weather History for Elkins, WV

Change the Weather History Date:

Thursday, May 15, 2014

  Actual Average Record
Temperature  
Mean Temperature 60 °F 58 °F  
Max Temperature 71 °F 70 °F 86 °F (1916)
Min Temperature 49 °F 45 °F 29 °F (1920)
Degree Days  
Heating Degree Days 5 8  
Month to date heating degree days 80 141  
Since 1 July heating degree days 5887 5704  
Cooling Degree Days 0 1  
Month to date cooling degree days 20 2  
Year to date cooling degree days 22 5  
Growing Degree Days 10 (Base 50)    
Moisture  
Dew Point 55 °F    
Average Humidity 75    
Maximum Humidity 93    
Minimum Humidity 57    
Precipitation  
Precipitation 2.14 in 0.17 in 2.14 in (2014)
Month to date precipitation 3.03 2.42  
Year to date precipitation 14.42 16.51  
Snow  
Snow 0.00 in - - ()
Month to date snowfall 0.0  
Since 1 September snowfall 92.3  
Snow Depth 0.00 in    
Sea Level Pressure  
Sea Level Pressure 29.98 in    
Wind  
Wind Speed 6 mph (South)    
Max Wind Speed 18 mph    
Max Gust Speed 26 mph    
Visibility 5 miles    
Events Rain    
T = Trace of Precipitation, MM = Missing Value Source: NWS Daily Summary

Daily Weather History Graph

Daily Weather History Graph

Search for Another Location

Airport:

Trip Planner

Search our weather history database for the weather conditions in past years. The results will help you decide how hot, cold, wet, or windy it might be!

Date:

Astronomy

May. 15, 2014 Rise Set
Actual Time 6:06 AM EDT 8:25 PM EDT
Civil Twilight 5:36 AM EDT 8:55 PM EDT
Nautical Twilight 5:00 AM EDT 9:32 PM EDT
Astronomical Twilight 4:19 AM EDT 10:12 PM EDT
Moon 9:31 PM EDT (5/15) 6:52 AM EDT (5/15)
Length of Visible Light 15h 18m
Length of Day
14h 18m
Full, 99% of the Moon is Illuminated
May 15
Full
May 21
Last Quarter
May 28
New
Jun 5
First Quarter
Jun 13
Full

Hourly Weather History & Observations

Time (EDT) Temp. Dew Point Humidity Pressure Visibility Wind Dir Wind Speed Gust Speed Precip Events Conditions
12:51 AM 71.1 °F 55.9 °F 59% 30.02 in 10.0 mi SSE 11.5 mph 21.9 mph N/A   Clear
1:51 AM 69.1 °F 55.9 °F 63% 30.00 in 10.0 mi SSE 8.1 mph - N/A   Partly Cloudy
2:51 AM 69.1 °F 55.0 °F 61% 29.98 in 10.0 mi SSE 12.7 mph 19.6 mph N/A   Scattered Clouds
3:51 AM 66.9 °F 54.0 °F 63% 29.97 in 10.0 mi SSE 8.1 mph - N/A   Scattered Clouds
4:51 AM 66.0 °F 53.1 °F 63% 29.96 in 10.0 mi SSE 5.8 mph - N/A   Clear
5:51 AM 66.9 °F 52.0 °F 59% 29.94 in 10.0 mi SE 9.2 mph - N/A   Clear
6:51 AM 66.9 °F 51.1 °F 57% 29.95 in 10.0 mi SSE 11.5 mph - N/A   Clear
7:51 AM 66.9 °F 52.0 °F 59% 29.95 in 10.0 mi South 15.0 mph 21.9 mph N/A   Partly Cloudy
8:51 AM 68.0 °F 54.0 °F 61% 29.94 in 10.0 mi SSE 8.1 mph - N/A   Partly Cloudy
9:51 AM 70.0 °F 57.0 °F 63% 29.95 in 10.0 mi SSE 9.2 mph 18.4 mph N/A   Overcast
10:35 AM 66.0 °F 59.0 °F 78% 29.99 in 2.0 mi West 5.8 mph 19.6 mph 0.01 in Rain Rain
10:42 AM 64.9 °F 59.0 °F 81% 30.00 in 1.2 mi SW 11.5 mph - 0.05 in Rain Rain
10:51 AM 63.0 °F 57.9 °F 84% 29.98 in 0.8 mi SSW 10.4 mph - 0.16 in Rain Heavy Rain
11:02 AM 62.1 °F 59.0 °F 90% 30.00 in 1.0 mi South 10.4 mph - 0.19 in Rain Heavy Rain
11:11 AM 63.0 °F 60.1 °F 90% 30.00 in 3.0 mi SSW 5.8 mph - 0.22 in Rain Rain
11:23 AM 63.0 °F 60.1 °F 90% 30.00 in 2.5 mi SSE 9.2 mph - 0.27 in Rain Rain
11:33 AM 64.0 °F 60.1 °F 87% 29.99 in 3.0 mi South 3.5 mph - 0.29 in Rain Heavy Rain
11:40 AM 64.0 °F 61.0 °F 90% 30.00 in 2.0 mi SSE 3.5 mph - 0.33 in Rain Rain
11:51 AM 64.0 °F 60.1 °F 87% 29.98 in 2.5 mi SE 4.6 mph - 0.36 in Rain Rain
12:20 PM 64.0 °F 61.0 °F 90% 29.98 in 5.0 mi Variable 3.5 mph - 0.11 in Rain Light Rain
12:51 PM 64.9 °F 60.1 °F 84% 29.96 in 7.0 mi Calm Calm - 0.12 in Rain Light Rain
1:51 PM 66.2 °F 62.6 °F 88% 29.95 in 10.0 mi SSE 3.5 mph - N/A Rain Light Rain
3:51 PM 66.0 °F 63.0 °F 90% 29.90 in 10.0 mi Calm Calm - 0.03 in   Overcast
4:51 PM 68.0 °F 62.1 °F 81% 29.89 in 10.0 mi SE 3.5 mph - 0.00 in   Mostly Cloudy
5:31 PM 62.1 °F 57.0 °F 84% 29.93 in 10.0 mi NW 11.5 mph - N/A   Overcast
5:46 PM 60.8 °F 55.4 °F 82% 29.93 in 7.0 mi WNW 11.5 mph 18.4 mph 0.00 in Rain Light Rain
5:51 PM 59.0 °F 54.0 °F 83% 29.94 in 2.0 mi Variable 6.9 mph 18.4 mph 0.01 in Rain Heavy Rain
5:53 PM 59.0 °F 54.0 °F 83% 29.95 in 1.2 mi Variable 3.5 mph 18.4 mph 0.01 in Rain Heavy Rain
5:58 PM 57.9 °F 54.0 °F 87% 29.95 in 0.8 mi Variable 4.6 mph - 0.09 in Rain Heavy Rain
6:05 PM 57.0 °F 53.1 °F 87% 29.95 in 1.0 mi Variable 3.5 mph - 0.19 in Rain Heavy Rain
6:30 PM 57.0 °F 52.0 °F 83% 29.97 in 1.2 mi WSW 6.9 mph - 0.33 in Rain Heavy Rain
6:44 PM 55.9 °F 51.1 °F 84% 30.00 in 2.0 mi SSE 5.8 mph - 0.41 in Rain Rain
6:51 PM 55.0 °F 51.1 °F 86% 29.99 in 1.8 mi SSW 12.7 mph 20.7 mph 0.45 in Rain Heavy Rain
6:59 PM 55.0 °F 50.0 °F 83% 29.99 in 2.5 mi SW 6.9 mph 20.7 mph 0.03 in Rain Rain
7:16 PM 54.0 °F 51.1 °F 90% 30.01 in 1.5 mi Calm Calm - 0.09 in Rain Rain
7:49 PM 53.6 °F 51.8 °F 94% 30.01 in 2.5 mi Calm Calm - 0.23 in Rain Rain
7:51 PM 53.6 °F 51.8 °F 94% 30.01 in 2.5 mi Calm Calm - N/A Rain Rain
8:02 PM 54.0 °F 51.1 °F 90% 30.00 in 2.5 mi Calm Calm - 0.04 in Rain Rain
9:08 PM 52.0 °F 48.9 °F 89% 30.01 in 2.5 mi NW 3.5 mph - 0.06 in Rain Heavy Rain
9:34 PM 51.1 °F 48.0 °F 89% 30.02 in 3.0 mi North 4.6 mph - 0.18 in Rain Heavy Rain
9:51 PM 52.0 °F 48.9 °F 89% 30.02 in 3.0 mi Calm Calm - 0.23 in Rain Rain
10:49 PM 50.0 °F 46.4 °F 87% 30.03 in 5.0 mi Variable 3.5 mph - 0.15 in Rain Rain
10:51 PM 50.0 °F 46.9 °F 89% 30.03 in 5.0 mi NNW 4.6 mph - 0.16 in Rain Rain
10:59 PM 50.0 °F 46.9 °F 89% 30.02 in 6.0 mi North 3.5 mph - 0.01 in Rain Rain
11:51 PM 48.9 °F 45.0 °F 86% 30.02 in 5.0 mi NNW 8.1 mph - 0.09 in Rain Light Rain